When you browse on this site, cookies collect data to enhance your experience and personalize the content and advertising you see.
Visit our Privacy Policy to learn more. By continuing to use the site, you agree to this use of cookies and data.
  • In France
  • List of Countries
  • For 7 days
  • Water Temperature
  • Satellite Maps
  • Weather Map
  • Weather Widgets
  • user-avatar
    Login

    Hourly Weather Childa

    Today, 13 December, Thursday

    Time Temperature Precipitation Wind Pressure Humidity
    00:00 +2°C° 0.4 mm 3 mps 632 mmHg 78%
    01:00 +2°C° 0.1 mm 3 mps 632 mmHg 78%
    02:00 +1°C° 0.1 mm 3 mps 632 mmHg 79%
    03:00 0°C° 0 mm 4 mps 632 mmHg 80%
    04:00 0°C° 0.1 mm 4 mps 632 mmHg 80%
    05:00 0°C° 0.1 mm 3 mps 632 mmHg 81%
    06:00 0°C° 0.1 mm 3 mps 632 mmHg 82%
    07:00 0°C° 0.1 mm 3 mps 633 mmHg 81%
    08:00 0°C° 0.1 mm 3 mps 633 mmHg 80%
    09:00 +1°C° 0.1 mm 3 mps 634 mmHg 79%
    10:00 +1°C° 0.1 mm 3 mps 634 mmHg 76%
    11:00 +1°C° 0.1 mm 3 mps 634 mmHg 74%
    12:00 0°C° 0.1 mm 4 mps 634 mmHg 71%
    13:00 +1°C° 0.1 mm 3 mps 635 mmHg 71%
    14:00 0°C° 0.1 mm 3 mps 635 mmHg 71%
    15:00 0°C° 0.1 mm 3 mps 635 mmHg 71%
    16:00 -2°C° 0 mm 2 mps 636 mmHg 72%
    17:00 -3°C° 0 mm 2 mps 636 mmHg 72%
    18:00 -5°C° 0 mm 2 mps 636 mmHg 73%
    19:00 -5°C° 0 mm 2 mps 636 mmHg 69%
    20:00 -5°C° 0 mm 2 mps 636 mmHg 65%
    21:00 -5°C° 0 mm 2 mps 637 mmHg 61%
    22:00 -6°C° 0 mm 2 mps 637 mmHg 62%
    23:00 -6°C° 0 mm 2 mps 637 mmHg 63%

    Tomorrow, 14 December, Friday

    Time Temperature Precipitation Wind Pressure Humidity
    00:00 -6°C° 0 mm 2 mps 637 mmHg 63%
    01:00 -6°C° 0 mm 2 mps 638 mmHg 65%
    02:00 -6°C° 0 mm 2 mps 638 mmHg 66%
    03:00 -6°C° 0 mm 2 mps 638 mmHg 68%
    04:00 -7°C° 0 mm 2 mps 638 mmHg 68%
    05:00 -7°C° 0 mm 2 mps 638 mmHg 67%
    06:00 -7°C° 0 mm 2 mps 639 mmHg 67%
    07:00 -6°C° 0 mm 2 mps 639 mmHg 66%
    08:00 -5°C° 0 mm 2 mps 639 mmHg 65%
    09:00 -5°C° 0 mm 2 mps 640 mmHg 64%
    10:00 -4°C° 0 mm 2 mps 640 mmHg 62%
    11:00 -3°C° 0 mm 2 mps 640 mmHg 61%
    12:00 -2°C° 0 mm 2 mps 640 mmHg 60%
    13:00 -2°C° 0 mm 2 mps 640 mmHg 62%
    14:00 -2°C° 0 mm 2 mps 640 mmHg 64%
    15:00 -3°C° 0 mm 2 mps 640 mmHg 66%
    16:00 -1°C° 0.1 mm 1 mps 640 mmHg 69%
    17:00 -2°C° 0.1 mm 1 mps 640 mmHg 73%
    18:00 -3°C° 0.1 mm 1 mps 640 mmHg 76%
    19:00 -3°C° 0 mm 1 mps 640 mmHg 76%
    20:00 -4°C° 0 mm 1 mps 640 mmHg 75%
    21:00 -4°C° 0 mm 1 mps 640 mmHg 75%
    22:00 -4°C° 0 mm 1 mps 640 mmHg 74%
    23:00 -4°C° 0 mm 1 mps 640 mmHg 73%

    Day after tomorrow, 15 December, Saturday

    Time Temperature Precipitation Wind Pressure Humidity
    00:00 -6°C° 0 mm 1 mps 640 mmHg 72%
    01:00 -7°C° 0 mm 2 mps 640 mmHg 71%
    02:00 -7°C° 0 mm 2 mps 640 mmHg 70%
    03:00 -7°C° 0 mm 2 mps 640 mmHg 70%
    04:00 -7°C° 0 mm 2 mps 640 mmHg 69%
    05:00 -7°C° 0 mm 2 mps 640 mmHg 69%
    06:00 -7°C° 0 mm 1 mps 640 mmHg 69%
    07:00 -6°C° 0 mm 1 mps 640 mmHg 67%
    08:00 -4°C° 0 mm 1 mps 641 mmHg 64%
    09:00 -3°C° 0 mm 1 mps 642 mmHg 62%
    10:00 -2°C° 0 mm 1 mps 642 mmHg 60%
    11:00 -1°C° 0 mm 1 mps 642 mmHg 58%
    12:00 +1°C° 0 mm 1 mps 642 mmHg 56%
    13:00 0°C° 0 mm 1 mps 642 mmHg 58%
    14:00 0°C° 0 mm 1 mps 642 mmHg 59%
    15:00 0°C° 0 mm 1 mps 642 mmHg 60%
    16:00 -1°C° 0 mm 1 mps 642 mmHg 62%
    17:00 -2°C° 0 mm 1 mps 642 mmHg 63%
    18:00 -6°C° 0 mm 2 mps 642 mmHg 64%
    19:00 -6°C° 0 mm 2 mps 642 mmHg 62%
    20:00 -6°C° 0 mm 2 mps 642 mmHg 59%
    21:00 -6°C° 0 mm 2 mps 642 mmHg 56%
    22:00 -6°C° 0 mm 2 mps 642 mmHg 55%
    23:00 -5°C° 0 mm 2 mps 642 mmHg 54%

    16 December, Sunday

    Time Temperature Precipitation Wind Pressure Humidity
    00:00 -5°C° 0 mm 2 mps 642 mmHg 52%
    01:00 -5°C° 0 mm 2 mps 642 mmHg 52%
    02:00 -5°C° 0 mm 2 mps 642 mmHg 51%
    03:00 -5°C° 0 mm 2 mps 642 mmHg 51%
    04:00 -5°C° 0 mm 2 mps 642 mmHg 50%
    05:00 -5°C° 0 mm 2 mps 642 mmHg 49%
    06:00 -3°C° 0 mm 1 mps 642 mmHg 49%
    07:00 -2°C° 0 mm 1 mps 642 mmHg 48%
    08:00 -1°C° 0 mm 1 mps 643 mmHg 48%
    09:00 0°C° 0 mm 1 mps 643 mmHg 47%
    10:00 +1°C° 0 mm 1 mps 643 mmHg 48%
    11:00 +2°C° 0 mm 1 mps 643 mmHg 48%
    12:00 +4°C° 0 mm 1 mps 644 mmHg 49%
    13:00 +3°C° 0 mm 1 mps 643 mmHg 52%
    14:00 +3°C° 0 mm 1 mps 643 mmHg 55%
    15:00 +2°C° 0 mm 1 mps 643 mmHg 59%
    16:00 -1°C° 0 mm 2 mps 642 mmHg 59%
    17:00 -2°C° 0 mm 2 mps 642 mmHg 60%
    18:00 -3°C° 0 mm 2 mps 642 mmHg 61%
    19:00 -3°C° 0 mm 2 mps 642 mmHg 60%
    20:00 -3°C° 0 mm 2 mps 642 mmHg 60%
    21:00 -3°C° 0 mm 2 mps 642 mmHg 59%
    22:00 -4°C° 0 mm 2 mps 642 mmHg 60%
    23:00 -4°C° 0 mm 2 mps 641 mmHg 61%

    17 December, Monday

    Time Temperature Precipitation Wind Pressure Humidity
    00:00 -4°C° 0 mm 2 mps 641 mmHg 61%
    01:00 -4°C° 0 mm 2 mps 641 mmHg 62%
    02:00 -4°C° 0 mm 2 mps 641 mmHg 62%
    03:00 -4°C° 0 mm 2 mps 641 mmHg 62%
    04:00 -4°C° 0 mm 2 mps 640 mmHg 62%
    05:00 -4°C° 0 mm 2 mps 640 mmHg 62%
    06:00 -4°C° 0 mm 2 mps 640 mmHg 63%
    07:00 -3°C° 0 mm 2 mps 640 mmHg 62%
    08:00 -2°C° 0 mm 2 mps 640 mmHg 62%
    09:00 -1°C° 0 mm 2 mps 640 mmHg 61%
    10:00 +1°C° 0 mm 2 mps 640 mmHg 60%
    11:00 +2°C° 0 mm 2 mps 640 mmHg 59%
    12:00 +3°C° 0 mm 2 mps 640 mmHg 59%
    13:00 +3°C° 0 mm 1 mps 640 mmHg 60%
    14:00 +3°C° 0 mm 1 mps 640 mmHg 61%
    15:00 +3°C° 0 mm 1 mps 639 mmHg 62%
    16:00 +1°C° 0 mm 1 mps 639 mmHg 62%
    17:00 -2°C° 0 mm 2 mps 639 mmHg 62%
    18:00 -3°C° 0 mm 2 mps 638 mmHg 61%
    19:00 -3°C° 0 mm 2 mps 638 mmHg 61%
    20:00 -3°C° 0 mm 2 mps 639 mmHg 61%
    21:00 -3°C° 0 mm 2 mps 639 mmHg 61%
    22:00 -3°C° 0.1 mm 2 mps 638 mmHg 64%
    23:00 -3°C° 0.1 mm 2 mps 638 mmHg 67%

    18 December, Tuesday

    Time Temperature Precipitation Wind Pressure Humidity
    00:00 -2°C° 0.1 mm 2 mps 638 mmHg 70%
    01:00 0°C° 0.2 mm 1 mps 638 mmHg 74%
    02:00 0°C° 0.2 mm 1 mps 638 mmHg 77%
    03:00 0°C° 0.2 mm 1 mps 638 mmHg 80%
    04:00 0°C° 0.2 mm 1 mps 638 mmHg 82%
    05:00 0°C° 0.2 mm 1 mps 638 mmHg 83%
    06:00 0°C° 0.2 mm 1 mps 638 mmHg 85%
    07:00 +1°C° 0.1 mm 1 mps 639 mmHg 84%
    08:00 +1°C° 0.1 mm 1 mps 639 mmHg 83%
    09:00 +2°C° 0.1 mm 1 mps 639 mmHg 82%
    10:00 +2°C° 0.1 mm 1 mps 639 mmHg 81%
    11:00 +3°C° 0.1 mm 1 mps 639 mmHg 80%
    12:00 +3°C° 0.1 mm 1 mps 639 mmHg 79%
    13:00 +3°C° 0.1 mm 1 mps 639 mmHg 80%
    14:00 +3°C° 0.1 mm 1 mps 639 mmHg 82%
    15:00 +3°C° 0.1 mm 1 mps 639 mmHg 83%
    16:00 +2°C° 0.1 mm 1 mps 639 mmHg 85%
    17:00 0°C° 0.1 mm 0 mps 639 mmHg 88%
    18:00 0°C° 0.1 mm 0 mps 639 mmHg 90%
    19:00 -1°C° 0.1 mm 0 mps 639 mmHg 90%
    20:00 -1°C° 0.1 mm 0 mps 639 mmHg 89%
    21:00 -1°C° 0.1 mm 0 mps 640 mmHg 89%
    22:00 0°C° 0.1 mm 1 mps 640 mmHg 88%
    23:00 0°C° 0.1 mm 1 mps 640 mmHg 87%
    Show more